Home > Time Zones > World Clock > Weather > Iran > Tehran > Past weeks

Flag for Iran Weather past 2 weeks in Tehran, Iran

Now
95 °F

Sunny.


Feels Like: 90 °F
Forecast: 77 / 99 °F
Wind: 7 mph from South

Location: Tehran-Mehrabad

Current Time: Jul 2, 2015 at 1:13:23 PM

Latest Report: Jul 2, 2015 at 12:30 PM


Visibility: 10 mi

Pressure: 30.09 "Hg

Humidity: 12%

Dew point: 36 °F

Location of TehranLocation

Historic Weather in Tehran — Graph

°F

Tehran temperature yesterday

Maximum temperature yesterday: 104 °F (at 3:30 PM)
Minimum temperature yesterday: 84 °F (at 5:00 AM)
Average temperature yesterday: 96 °F

Past Weeks' High & Low Weather Summary

 TemperatureHumidityPressure
High106 °F (Jun 30, 1:30 PM)44% (Jun 24, 6:30 AM)30.12 "Hg (Jun 24, 6:30 AM)
Low73 °F (Jun 24, 6:00 AM)6% (Jun 20, 4:30 PM)29.56 "Hg (Jun 26, 5:00 PM)
Average91 °F14%29.78 "Hg
* Reported Jun 17 11:30 AM — Jul 2 12:00 Noon, Tehran, Weather by CustomWeather, © 2015

Note: Actual official high and low records may vary slightly from our data, if they occured in-between our weather recording intervals... More about our weather records

Advertising

Tehran weather history for previous 24 hours

 ConditionsComfort  
Time TempWeatherWind HumidityBarometerVisibility
12:00 PM
Thu, Jul 2
93 °FSunny.7 mph13%30.09 "Hg10 mi
11:30 AM93 °FSunny.9 mph14%30.09 "Hg10 mi
11:00 AM91 °FSunny.7 mph16%30.09 "Hg10 mi
10:30 AM90 °FSunny.12 mph20%30.09 "Hg10 mi
10:00 AM90 °FSunny.12 mph22%30.12 "Hg10 mi
9:30 AM88 °FSunny.12 mph24%30.09 "Hg10 mi
9:00 AM86 °FSunny.12 mph33%30.12 "Hg10 mi
8:30 AM82 °FSunny.9 mph37%30.09 "Hg10 mi
8:00 AM84 °FClear.5 mph19%30.12 "Hg5 mi
7:30 AM84 °FClear.5 mph19%30.07 "Hg5 mi
6:30 AM82 °FClear.5 mph21%30.07 "Hg10 mi
6:00 AM81 °FClear.5 mph20%30.04 "Hg10 mi
5:30 AM82 °FClear.9 mph16%30.01 "Hg10 mi
5:00 AM82 °FClear.5 mph16%30.01 "Hg10 mi
4:30 AM82 °FClear.5 mph16%30.01 "Hg10 mi
4:00 AM84 °FClear.5 mph15%30.01 "Hg10 mi
3:30 AM90 °FClear.5 mph11%30.01 "Hg10 mi
3:00 AM90 °FClear.5 mph10%30.01 "Hg10 mi
2:30 AM91 °FClear.9 mph10%30.01 "Hg10 mi
1:30 AM91 °FClear.9 mph12%30.01 "Hg10 mi
1:00 AM90 °FClear.5 mph14%30.01 "Hg10 mi
12:30 AM93 °FClear.5 mph10%30.01 "Hg10 mi
12:00 AM95 °FClear.14 mph10%30.01 "Hg10 mi
11:30 PM
Wed, Jul 1
95 °FClear.9 mph10%29.98 "Hg10 mi
11:00 PM97 °FClear.9 mph11%29.98 "Hg10 mi
10:30 PM97 °FClear.7 mph13%29.98 "Hg10 mi
10:00 PM95 °FClear.5 mph15%29.98 "Hg10 mi
9:30 PM99 °FSunny.5 mph12%29.95 "Hg10 mi
9:00 PM100 °FScattered clouds.5 mph10%29.95 "HgN/A
8:30 PM100 °FScattered clouds.5 mph10%29.95 "HgN/A
8:00 PM102 °FScattered clouds.7 mph9%29.95 "HgN/A
7:30 PM102 °FScattered clouds.7 mph8%29.92 "HgN/A
7:00 PM102 °FPassing clouds.No wind8%29.92 "HgN/A
6:30 PM104 °FPassing clouds.5 mph7%29.92 "HgN/A
6:00 PM104 °FPassing clouds.7 mph7%29.92 "HgN/A
5:30 PM104 °FPassing clouds.7 mph7%29.92 "HgN/A
5:00 PM104 °FPassing clouds.9 mph7%29.92 "HgN/A
4:30 PM104 °FPassing clouds.9 mph8%29.92 "HgN/A
4:00 PM102 °FPassing clouds.5 mph8%29.95 "HgN/A
3:30 PM104 °FPassing clouds.7 mph7%29.95 "HgN/A
3:00 PM102 °FPassing clouds.7 mph9%29.95 "HgN/A
2:30 PM102 °FPassing clouds.7 mph9%29.95 "HgN/A
2:00 PM100 °FPassing clouds.7 mph9%29.98 "HgN/A
1:30 PM100 °FPassing clouds.7 mph9%29.98 "HgN/A
1:00 PM100 °FPassing clouds.9 mph10%29.98 "HgN/A
Weather by CustomWeather, © 2015

See weather overviewHow to use our weather pages